Flag for Germany Past Weather in Pfaffenhofen an der Ilm, Bavaria, Germany — Yesterday and Last 2 Weeks

Now
81 °F

Warm.


Feels Like: 81 °F
Forecast: 59 / 85 °F
Wind: 3 mph from Southeast

Location: Ingolstadt Airport

Current Time: Aug 26, 2016 at 2:23:02 PM

Latest Report: Aug 26, 2016 at 1:20 PM


Visibility: N/A

Pressure: 30.09 "Hg

Humidity: 48%

Dew Point: 59 °F

Location of Pfaffenhofen an der IlmLocation

Past Weather in Pfaffenhofen an der Ilm — Graph

°F

Pfaffenhofen an der Ilm Temperature Yesterday

Maximum temperature yesterday: 84 °F (at 4:20 PM)
Minimum temperature yesterday: 57 °F (at 5:20 AM)
Average temperature yesterday: 71 °F

High & Low Weather Summary for the Past Weeks

 TemperatureHumidityPressure
High84 °F (Aug 25, 4:20 PM)94% (Aug 12, 5:20 AM)30.42 "Hg (Aug 12, 5:20 AM)
Low50 °F (Aug 18, 5:20 AM)31% (Aug 25, 5:20 PM)29.80 "Hg (Aug 18, 3:20 PM)
Average66 °F69%30.13 "Hg
* Reported Aug 11 12:20 PM — Aug 26 12:20 PM, Pfaffenhofen an der Ilm, Weather by CustomWeather, © 2016

Note: Actual official high and low records may vary slightly from our data, if they occured in-between our weather recording intervals... More about our weather records

Advertising

Pfaffenhofen an der Ilm Weather History for the Previous 24 Hours

Scroll right to see more
 ConditionsComfort  
Time TempWeatherWind HumidityBarometerVisibility
12:20 PM
Fri, Aug 26
77 °FWarm.3 mph57%30.09 "HgN/A
11:20 AM73 °FMild.2 mph65%30.12 "HgN/A
10:20 AM70 °FMild.2 mph64%30.12 "HgN/A
9:20 AM66 °FMild.3 mph73%30.12 "HgN/A
8:20 AM61 °FCool.2 mph83%30.09 "HgN/A
7:20 AM59 °FCool.2 mph88%30.09 "HgN/A
6:20 AM55 °FCool.2 mph94%30.09 "HgN/A
5:20 AM54 °FCool.No wind94%30.09 "HgN/A
4:20 AM57 °FCool.3 mph88%30.09 "Hg5 mi
3:20 AM61 °FCool.5 mph83%30.09 "Hg6 mi
2:20 AM61 °FCool.5 mph83%30.09 "Hg4 mi
1:20 AM63 °FMild.5 mph77%30.09 "Hg4 mi
12:20 AM63 °FMild.3 mph77%30.09 "Hg4 mi
11:20 PM
Thu, Aug 25
61 °FCool.1 mph83%30.09 "Hg5 mi
10:20 PM64 °FMild.1 mph78%30.09 "Hg5 mi
9:20 PM68 °FMild.3 mph64%30.09 "Hg6 mi
8:20 PM73 °FMild.3 mph50%30.09 "HgN/A
7:20 PM81 °FPleasantly warm.5 mph37%30.09 "HgN/A
6:20 PM82 °FPleasantly warm.7 mph35%30.09 "HgN/A
5:20 PM84 °FPleasantly warm.9 mph31%30.09 "HgN/A
4:20 PM84 °FPleasantly warm.10 mph33%30.09 "HgN/A
3:20 PM82 °FPleasantly warm.8 mph35%30.12 "HgN/A
2:20 PM82 °FPleasantly warm.9 mph32%30.12 "HgN/A
Weather by CustomWeather, © 2016

See weather overviewHow to use our weather pages